Hourly Data Report for August 10, 2021

KUGLUKTUK A
NUNAVUT
Current Station Operator: NAVCAN

67°49'00.000" N
115°08'38.000" W
22.60 m
2300903
71938
YCO

Download Data

Hourly Data (August 2021)
Hourly Data Report for August 10, 2021
TIME
LST
Temp Definition
°C
Dew Point Definition
°C
Rel Hum Definition
%
Precip. Amount Definition
mm

Wind Dir Definition
10's deg

Wind Spd Definition
km/h
Visibility Definition
km
Stn Press Definition
kPa
Hmdx Definition


Wind Chill Definition


Weather Definition


00:00 5.6 3.7 88   30 7 24.1 99.58     LegendNANA
01:00 6.0 3.8 85   32 4 24.1 99.61     LegendNANA
02:00 6.6 4.1 84   36 16 24.1 99.66     Mostly Cloudy
03:00 6.4 4.9 90   34 18 24.1 99.72     LegendNANA
04:00 5.8 3.7 86   34 18 24.1 99.77     LegendNANA
05:00 5.5 3.6 88   32 13 24.1 99.83     Drizzle
06:00 4.9 3.3 89   32 13 19.3 99.86     Drizzle
07:00 5.2 2.6 83   31 15 12.9 99.88     LegendNANA
08:00 4.7 3.7 93   30 12 6.4 99.89     Drizzle
09:00 4.9 4.2 95   30 13 6.4 99.90     Drizzle, Fog
10:00 5.6 4.0 89   34 13 19.3 99.88     LegendNANA
11:00 6.4 3.6 82   36 7 16.1 99.89     Cloudy
12:00 7.5 2.6 71   32 6 24.1 99.86     LegendNANA
13:00 8.0 3.0 70   2 9 24.1 99.87     LegendNANA
14:00 8.4 3.0 69   4 10 24.1 99.87     Cloudy
15:00 8.4 2.6 67   7 9 24.1 99.88     LegendNANA
16:00 8.8 3.3 68   7 8 24.1 99.87     LegendNANA
17:00 8.8 2.3 64   8 13 24.1 99.88     Cloudy
18:00 8.2 3.5 72   9 14 24.1 99.92     LegendNANA
19:00 8.2 2.3 66   10 8 24.1 99.96     LegendNANA
20:00 8.0 2.5 68   7 8 24.1 99.96     Cloudy
21:00 7.7 2.3 69   4 8 24.1 99.99     LegendNANA
22:00 7.0 2.8 74   2 11 24.1 100.04     LegendNANA
23:00 6.9 3.6 79   36 2 24.1 100.08     Cloudy

Notes on Data Quality.

Legend

  • E = Estimated
  • M = Missing
  • NA = Not Available*
  • [empty] = Indicates an unobserved value
Date modified: